718  
ASUS44 KJAN 071110  
RWRMS  
 
MISSISSIPPI HOURLY WEATHER ROUNDUP  
NATIONAL WEATHER SERVICE JACKSON MS  
500 AM CST TUE FEB 07 2023  
 
NOTE: "FAIR: INDICATES FEW OR NO CLOUDS BELOW 12,000 FEET WITH NO  
SIGNIFICANT WEATHER AND/OR S TO VISIBILITY
.  
 
MSZ001>002-007>008-010>013-018>021-025>028-034>036-071200-  
NORTHWEST MISSISSIPPI  
 
CITY SKY/WX TMP DP RH WIND PRES REMARKS
 
BATESVILLE CLOUDY 50 43 76 S5 30.14R  
CLARKSDALE CLOUDY 48 46 93 SE7 30.13S  
CLEVELAND MOCLDY 50 44 80 SE5 30.12S  
GREENWOOD CLOUDY 54 46 74 CALM 30.13R  
GREENVILLE PTCLDY 46 43 89 SE5 30.11R  
OLIVE BRANCH PTCLDY 50 45 81 S8 30.11R  
OXFORD PTCLDY 50 43 76 CALM 30.16R  
TUNICA CLEAR 45 45 99 S8 30.12R  
WINONA N/A 45 44 94 CALM 30.14R  

 
 
MSZ003>006-009-014>017-022>024-029>033-037>039-071200-  
NORTHEAST MISSISSIPPI  
 
CITY SKY/WX TMP DP RH WIND PRES REMARKS
 
ABERDEEN MOCLDY 43 43 100 CALM 30.18R  
COLUMBUS AFB MOCLDY 41 38 91 CALM 30.15R  
CORINTH PTCLDY 46 39 76 CALM 30.16R  
GOLDN TRIANGLE CLOUDY 48 44 86 SE7 30.18R  
IUKA FAIR 48 38 68 CALM 30.17R  
LOUISVILLE MOCLDY 50 46 87 CALM 30.18R  
STARKVILLE CLOUDY 48 48 100 S3 30.15R  
TUPELO PTCLDY 48 40 73 CALM 30.16  

 
 
MSZ040-058-071200-  
CENTRAL MISSISSIPPI  
 
CITY SKY/WX TMP DP RH WIND PRES REMARKS
 
JACKSON INTL PTCLDY 49 46 90 SE6 30.13R  
JACKSON HAWKNS PTCLDY 50 44 80 SE3 30.13S  
MERIDIAN KEY PTCLDY 42 41 96 CALM 30.16S  
MERIDIAN NAS PTCLDY 46 39 76 CALM 30.17S  
PRESTON PTCLDY 50 43 77 SE7 30.18S  
RAYMOND CLOUDY 48 48 100 E5 30.12S  
VICKSBURG VKS CLOUDY 54 52 94 CALM 30.11R  

 
 
MSZ059>079-071200-  
SOUTH MISSISSIPPI  
 
CITY SKY/WX TMP DP RH WIND PRES REMARKS
 
BROOKHAVEN MOCLDY 52 52 100 CALM 30.14R  
HATTIESBURG PTCLDY 47 44 90 CALM 30.15S  
LAUREL PTCLDY 45 N/A N/A CALM 30.16S  
MCCOMB CLOUDY 55 54 96 SE6 30.12S FOG  
NATCHEZ CLEAR 52 51 97 E7 30.12R  
PINE BELT PTCLDY 47 47 100 CALM 30.16S  

 
 
MSZ080>082-071200-  
COASTAL MISSISSIPPI  
 
CITY SKY/WX TMP DP RH WIND PRES REMARKS
 
BILOXI CLOUDY 61 57 88 E5 30.11R  
GULFPORT CLOUDY 59 56 89 N5 30.12R  
PASCAGOULA PTCLDY 49 48 97 N3 30.14R  

 
 
LAZ007>009-015>016-023>026-071200-  
NORTHEAST LOUISIANA  
 
CITY SKY/WX TMP DP RH WIND PRES REMARKS
 
BASTROP FAIR 48 47 98 CALM 30.11R  
TALLULAH/VBURG PTCLDY 49 46 90 SE5 30.12S  
VIDALIA N/A 52 51 95 CALM 30.10R  

 
 
 
CLICK HERE TO GO TO PREVIOUS BULLETINS.

The Nexlab MS Page Main Text Page